Volver al catálogo

COSMOS 1285 DEB

ActivoHEO
NORAD 27801·DEBRIS·🇷🇺 Russia

Lanzado Aug 4, 1981 desde Plesetsk Cosmodrome

Loading…

Próximos Pases (próximas 24 horas)

TLE

ActualizadoSource: Space-Track

Época: Sep 13, 2026, 09:10 UTC

1 27801U 81071Q   26256.38228547  .00000481  00000-0  00000-0 0  9998
2 27801  63.9205  26.5342 7265356  37.8568 355.4094  1.97958452185316

Sigue COSMOS 1285 DEB en tiempo real con AllMySat

Download on the App Store